Location: Capvern
(43.1036°N, 0.3160°E)
Time: 04:16:07
(UTC+00:00)

COSMO-SKYMED 1 - Pass Details

Date: 16 October 2021
Orbit: 621 x 623 km, 97.9° (Epoch: 02 December)

Event Time Altitude Azimuth Distance (km) Brightness Sun altitude
Rises 18:38:25 0° 6° (N) 2,915 6.0 -16.1°
Reaches altitude 10° 18:40:41 10° 359° (N) 2,004 5.2 -16.5°
Maximum altitude 18:44:48 42° 289° (WNW) 891 3.9 -17.3°
Drops below altitude 10° 18:48:53 10° 218° (SW) 1,988 5.6 -18.0°
Sets 18:51:08 0° 212° (SSW) 2,889 6.4 -18.5°
